TimeEDT,TemperatureF,Dew PointF,Humidity,Sea Level PressureIn,VisibilityMPH,Wind Direction,Wind SpeedMPH,Gust SpeedMPH,PrecipitationIn,Events,Conditions,WindDirDegrees,DateUTC
12:51 AM,41.0,30.9,67,30.04,10.0,Calm,Calm,-,N/A,,Overcast,0,2013-03-29 04:51:00
1:51 AM,41.0,30.9,67,30.04,10.0,Calm,Calm,-,N/A,,Overcast,0,2013-03-29 05:51:00
2:51 AM,39.9,30.9,70,30.04,10.0,West,3.5,-,N/A,,Mostly Cloudy,280,2013-03-29 06:51:00
3:51 AM,41.0,30.9,67,30.04,10.0,WNW,8.1,-,N/A,,Clear,290,2013-03-29 07:51:00
4:51 AM,39.9,30.9,70,30.04,10.0,WNW,5.8,-,N/A,,Clear,290,2013-03-29 08:51:00
5:51 AM,39.0,30.9,73,30.04,10.0,WNW,4.6,-,N/A,,Partly Cloudy,290,2013-03-29 09:51:00
6:51 AM,39.0,30.9,73,30.05,10.0,WNW,5.8,-,N/A,,Partly Cloudy,290,2013-03-29 10:51:00
7:51 AM,43.0,32.0,65,30.06,10.0,West,8.1,-,N/A,,Partly Cloudy,280,2013-03-29 11:51:00
8:51 AM,46.9,30.9,54,30.06,10.0,NW,8.1,-,N/A,,Partly Cloudy,310,2013-03-29 12:51:00
9:51 AM,52.0,30.0,43,30.06,10.0,NW,8.1,-,N/A,,Scattered Clouds,320,2013-03-29 13:51:00
10:51 AM,54.0,30.0,40,30.05,10.0,WNW,8.1,-,N/A,,Scattered Clouds,300,2013-03-29 14:51:00
11:51 AM,57.0,30.0,36,30.04,10.0,NNW,6.9,-,N/A,,Scattered Clouds,330,2013-03-29 15:51:00
12:51 PM,57.0,27.0,32,30.02,10.0,Variable,5.8,24.2,N/A,,Mostly Cloudy,0,2013-03-29 16:51:00
1:51 PM,54.0,27.0,35,30.01,10.0,North,8.1,18.4,0.00,Rain,Light Rain,350,2013-03-29 17:51:00
2:51 PM,55.0,23.0,29,29.99,10.0,South,3.5,-,0.00,,Mostly Cloudy,190,2013-03-29 18:51:00
3:51 PM,52.0,30.9,45,29.99,10.0,SSE,11.5,-,N/A,,Mostly Cloudy,150,2013-03-29 19:51:00
4:51 PM,54.0,25.0,33,29.98,10.0,WNW,9.2,-,0.00,,Mostly Cloudy,300,2013-03-29 20:51:00
5:51 PM,54.0,24.1,31,29.98,10.0,WNW,8.1,-,N/A,,Mostly Cloudy,290,2013-03-29 21:51:00
6:51 PM,53.1,25.0,34,29.99,10.0,NW,8.1,-,N/A,,Mostly Cloudy,310,2013-03-29 22:51:00
7:51 PM,50.0,25.0,38,30.01,10.0,WNW,5.8,-,N/A,,Mostly Cloudy,300,2013-03-29 23:51:00
8:51 PM,48.0,26.1,42,30.03,10.0,NW,4.6,-,N/A,,Scattered Clouds,310,2013-03-30 00:51:00
9:51 PM,46.9,27.0,46,30.05,10.0,NW,6.9,-,N/A,,Mostly Cloudy,320,2013-03-30 01:51:00
10:51 PM,46.0,27.0,47,30.06,10.0,NW,10.4,-,N/A,,Mostly Cloudy,320,2013-03-30 02:51:00
11:51 PM,45.0,28.0,52,30.06,10.0,NW,9.2,-,N/A,,Overcast,310,2013-03-30 03:51:00